TimeMST,TemperatureF,Dew PointF,Humidity,Sea Level PressureIn,VisibilityMPH,Wind Direction,Wind SpeedMPH,Gust SpeedMPH,PrecipitationIn,Events,Conditions,WindDirDegrees,DateUTC
5:00 AM,23,9,41,29.48,15,West,15.0,,,,Overcast,270,2012-12-16 12:00:00
5:00 AM,23.0,8.6,54,29.48,15.0,West,16.1,-,N/A,,Overcast,270,2012-12-16 12:00:00
6:00 AM,24.8,8.6,50,29.47,15.0,West,16.1,23.0,N/A,,Overcast,260,2012-12-16 13:00:00
7:00 AM,23.0,10.4,59,29.51,15.0,West,8.1,-,N/A,,Overcast,280,2012-12-16 14:00:00
8:00 AM,24.8,10.4,54,29.51,20.0,West,17.3,-,N/A,,Mostly Cloudy,270,2012-12-16 15:00:00
9:00 AM,24.8,8.6,50,29.54,30.0,West,18.4,-,N/A,,Mostly Cloudy,270,2012-12-16 16:00:00
10:00 AM,23.0,8.6,54,29.55,30.0,West,16.1,-,N/A,,Mostly Cloudy,260,2012-12-16 17:00:00
11:00 AM,27,9,32,29.56,28,West,4.6,,,,Mostly Cloudy,270,2012-12-16 18:00:00
12:00 PM,28.4,8.6,43,29.54,30.0,West,16.1,23.0,N/A,,Mostly Cloudy,260,2012-12-16 19:00:00
1:00 PM,30.2,8.6,40,29.55,30.0,West,8.1,18.4,N/A,,Scattered Clouds,270,2012-12-16 20:00:00
2:00 PM,30.2,6.8,37,29.55,30.0,West,19.6,-,N/A,,Partly Cloudy,280,2012-12-16 21:00:00
3:00 PM,28.4,8.6,43,29.54,30.0,West,18.4,25.3,N/A,,Partly Cloudy,280,2012-12-16 22:00:00
4:00 PM,24.8,6.8,46,29.57,30.0,West,16.1,21.9,N/A,,Partly Cloudy,280,2012-12-16 23:00:00
5:00 PM,18,4,38,29.60,19,West,6.9,,,,Partly Cloudy,270,2012-12-17 00:00:00
5:00 PM,17.6,3.2,53,29.60,20.0,West,6.9,-,N/A,,Scattered Clouds,270,2012-12-17 00:00:00
6:00 PM,23.0,3.2,43,29.58,15.0,Calm,Calm,-,N/A,,Scattered Clouds,0,2012-12-17 01:00:00
7:00 PM,15.8,3.2,58,29.60,15.0,WSW,9.2,-,N/A,,Mostly Cloudy,250,2012-12-17 02:00:00
8:00 PM,14.0,3.2,62,29.58,15.0,South,5.8,-,N/A,,Scattered Clouds,190,2012-12-17 03:00:00
9:00 PM,14.0,1.4,57,29.57,15.0,South,10.4,-,N/A,,Partly Cloudy,170,2012-12-17 04:00:00
10:00 PM,12.2,1.4,62,29.55,15.0,South,6.9,-,N/A,,Partly Cloudy,170,2012-12-17 05:00:00